| time (UTC) | temp C | wind direction | speed KPH | gust KPH | rain 1hr cm | rain 24hr cm | rain mn cm | humidity % | barometer mb |
| 20260507033935 | -17 | 293 | 1.6 | 6.4 | 0.00 | 0.00 | 0.00 | 1006.0 | |
| 20260507032755 | -17 | 270 | 4.8 | 4.8 | 0.00 | 0.00 | 0.00 | 1006.0 | |
| 20260507031616 | -17 | 270 | 3.2 | 3.2 | 0.00 | 0.00 | 0.00 | 1006.1 | |
| 20260507030435 | -17 | 338 | 0.0 | 4.8 | 0.00 | 0.00 | 0.00 | 1006.0 | |
| 20260507025254 | -17 | 293 | 1.6 | 3.2 | 0.00 | 0.00 | 0.00 | 1005.9 | |
| 20260507024114 | -17 | 270 | 1.6 | 3.2 | 0.00 | 0.00 | 0.00 | 1005.8 | |
| 20260507022935 | -17 | 293 | 1.6 | 4.8 | 0.00 | 0.00 | 0.00 | 1005.6 | |
| 20260507021752 | -17 | 0 | 1.6 | 4.8 | 0.00 | 0.00 | 0.00 | 1005.7 | |
| 20260507020613 | -17 | 338 | 4.8 | 4.8 | 0.00 | 0.00 | 0.00 | 1005.7 | |
| 20260507015434 | -17 | 315 | 1.6 | 6.4 | 0.00 | 0.00 | 0.00 | 1005.5 | |
| 20260507014253 | -17 | 270 | 3.2 | 4.8 | 0.00 | 0.00 | 0.00 | 1005.1 | |
| 20260507013113 | -17 | 293 | 3.2 | 4.8 | 0.00 | 0.00 | 0.00 | 1005.0 | |
| 20260507011933 | -17 | 293 | 1.6 | 6.4 | 0.00 | 0.00 | 0.00 | 1005.2 | |
| 20260507010752 | -17 | 315 | 4.8 | 11.3 | 0.00 | 0.00 | 0.00 | 1005.2 | |
| 20260507005612 | -17 | 293 | 6.4 | 14.5 | 0.00 | 0.00 | 0.00 | 1005.0 | |
| 20260507004432 | -17 | 338 | 8.0 | 12.9 | 0.00 | 0.00 | 0.00 | 1004.9 | |
| 20260507003251 | -17 | 315 | 6.4 | 9.7 | 0.00 | 0.00 | 0.00 | 1004.9 | |
| 20260507002109 | -17 | 270 | 6.4 | 9.7 | 0.00 | 0.00 | 0.00 | 1004.8 | |
| 20260507000928 | -17 | 270 | 3.2 | 9.7 | 0.00 | 0.00 | 0.00 | 1004.6 | |
| 20260506235746 | -17 | 0 | 8.0 | 11.3 | 0.00 | 0.00 | 0.00 | 1004.4 | |
| 20260506234605 | -17 | 338 | 8.0 | 12.9 | 0.00 | 0.00 | 0.00 | 1004.0 | |
| 20260506233424 | -17 | 293 | 3.2 | 19.3 | 0.00 | 0.00 | 0.00 | 1003.6 | |
| 20260506232244 | -17 | 270 | 11.3 | 19.3 | 0.00 | 0.00 | 0.00 | 1003.4 | |
| 20260506231103 | -17 | 0 | 11.3 | 22.5 | 0.00 | 0.00 | 0.00 | 1003.3 | |
| 20260506225920 | -17 | 293 | 11.3 | 17.7 | 0.00 | 0.00 | 0.00 | 1003.4 | |
| 20260506224740 | -17 | 270 | 14.5 | 20.9 | 0.00 | 0.00 | 0.00 | 1003.4 | |
| 20260506223559 | -17 | 0 | 14.5 | 30.6 | 0.00 | 0.00 | 0.00 | 1003.1 | |
| 20260506222420 | -17 | 293 | 32.2 | 40.2 | 0.00 | 0.00 | 0.00 | 1003.0 | |
| 20260506221240 | -17 | 293 | 16.1 | 24.1 | 0.00 | 0.00 | 0.00 | 1002.9 | |
| 20260506220059 | -17 | 0 | 14.5 | 24.1 | 0.00 | 0.00 | 0.00 | 1002.9 | |
| 20260506214917 | -17 | 0 | 12.9 | 22.5 | 0.00 | 0.00 | 0.00 | 1002.6 | |
| 20260506213736 | -17 | 338 | 4.8 | 11.3 | 0.00 | 0.00 | 0.00 | 1001.6 | |
| 20260506212556 | -17 | 338 | 6.4 | 14.5 | 0.00 | 0.00 | 0.00 | 1001.3 | |
| 20260506211416 | -17 | 135 | 12.9 | 12.9 | 0.00 | 0.00 | 0.00 | 1001.1 | |
| 20260506210236 | -17 | 135 | 11.3 | 14.5 | 0.00 | 0.00 | 0.00 | 1000.8 | |
| 20260506205056 | -17 | 135 | 8.0 | 9.7 | 0.00 | 0.00 | 0.00 | 1000.9 | |
| 20260506203915 | -17 | 135 | 8.0 | 9.7 | 0.00 | 0.00 | 0.00 | 1000.9 | |
| 20260506202735 | -17 | 135 | 4.8 | 8.0 | 0.00 | 0.00 | 0.00 | 1000.9 | |
| 20260506201552 | -17 | 135 | 1.6 | 9.7 | 0.00 | 0.00 | 0.00 | 1001.0 | |
| 20260506200410 | -17 | 315 | 6.4 | 11.3 | 0.00 | 0.00 | 0.00 | 1001.1 | |
| 20260506195231 | -17 | 315 | 9.7 | 14.5 | 0.00 | 0.00 | 0.00 | 1001.2 | |
| 20260506194051 | -17 | 270 | 9.7 | 17.7 | 0.00 | 0.00 | 0.00 | 1001.1 | |
| 20260506192910 | -17 | 270 | 11.3 | 14.5 | 0.00 | 0.00 | 0.00 | 1000.9 | |
| 20260506191727 | -17 | 135 | 6.4 | 11.3 | 0.00 | 0.00 | 0.00 | 1000.5 | |
| 20260506190547 | -17 | 68 | 6.4 | 14.5 | 0.00 | 0.00 | 0.00 | 1000.2 | |
| 20260506185407 | -17 | 180 | 6.4 | 19.3 | 0.00 | 0.00 | 0.00 | 1000.0 | |
| 20260506184227 | -17 | 135 | 4.8 | 16.1 | 0.00 | 0.00 | 0.00 | 999.9 | |
| 20260506183050 | -17 | 158 | 9.7 | 12.9 | 0.00 | 0.00 | 0.00 | 999.8 | |
| 20260506181913 | -17 | 180 | 6.4 | 19.3 | 0.00 | 0.00 | 0.00 | 999.6 | |
| 20260506180734 | -17 | 180 | 6.4 | 20.9 | 0.00 | 0.00 | 0.00 | 999.5 | |
| 20260506175556 | -17 | 68 | 11.3 | 20.9 | 0.00 | 0.00 | 0.00 | 999.4 | |
| 20260506174419 | -17 | 180 | 17.7 | 24.1 | 0.00 | 0.00 | 0.00 | 999.3 | |
| 20260506173242 | -17 | 225 | 11.3 | 25.7 | 0.00 | 0.00 | 0.00 | 999.3 | |
| 20260506172102 | -17 | 180 | 12.9 | 30.6 | 0.00 | 0.00 | 0.00 | 999.2 | |
| 20260506170924 | -17 | 248 | 22.5 | 27.4 | 0.00 | 0.00 | 0.00 | 999.1 | |
| 20260506165746 | -17 | 180 | 22.5 | 33.8 | 0.00 | 0.00 | 0.00 | 998.5 | |
| 20260506164607 | -17 | 270 | 12.9 | 32.2 | 0.00 | 0.00 | 0.00 | 998.8 | |
| 20260506163429 | -17 | 158 | 19.3 | 35.4 | 0.00 | 0.00 | 0.00 | 998.7 | |
| 20260506162252 | -17 | 180 | 20.9 | 35.4 | 0.00 | 0.00 | 0.00 | 999.1 | |
| 20260506161113 | -17 | 135 | 20.9 | 38.6 | 0.00 | 0.00 | 0.00 | 999.2 | |
| 20260506155934 | -17 | 338 | 9.7 | 25.7 | 0.00 | 0.00 | 0.00 | 999.2 | |
| 20260506154757 | -17 | 180 | 17.7 | 37.0 | 0.00 | 0.00 | 0.00 | 999.3 | |
| 20260506153619 | -17 | 225 | 14.5 | 35.4 | 0.00 | 0.00 | 0.00 | 999.5 | |
| 20260506152441 | -17 | 248 | 16.1 | 37.0 | 0.00 | 0.00 | 0.00 | 999.8 | |
| 20260506151303 | -17 | 315 | 16.1 | 38.6 | 0.00 | 0.00 | 0.00 | 999.9 | |
| 20260506150123 | -17 | 338 | 22.5 | 30.6 | 0.00 | 0.00 | 0.00 | 1000.0 | |
| 20260506144944 | -17 | 225 | 19.3 | 30.6 | 0.00 | 0.00 | 0.00 | 1000.1 | |
| 20260506143806 | -17 | 338 | 19.3 | 33.8 | 0.00 | 0.00 | 0.00 | 1000.2 | |
| 20260506142625 | -17 | 225 | 20.9 | 29.0 | 0.00 | 0.00 | 0.00 | 1000.6 | |
| 20260506141449 | -17 | 315 | 9.7 | 30.6 | 0.00 | 0.00 | 0.00 | 1000.7 | |
| 20260506140307 | -17 | 180 | 12.9 | 35.4 | 0.00 | 0.00 | 0.00 | 1000.8 | |
| 20260506135127 | -17 | 180 | 20.9 | 29.0 | 0.00 | 0.00 | 0.00 | 1000.7 | |
| 20260506133953 | -17 | 248 | 27.4 | 35.4 | 0.00 | 0.00 | 0.00 | 1000.7 | |
| 20260506132810 | -17 | 315 | 30.6 | 33.8 | 0.00 | 0.00 | 0.00 | 1000.8 | |
| 20260506131630 | -17 | 248 | 12.9 | 29.0 | 0.00 | 0.00 | 0.00 | 1001.0 | |
| 20260506130452 | -17 | 248 | 9.7 | 20.9 | 0.00 | 0.00 | 0.00 | 1001.4 | |
| 20260506125313 | -17 | 338 | 14.5 | 25.7 | 0.00 | 0.00 | 0.00 | 1001.6 | |
| 20260506124134 | -17 | 225 | 8.0 | 16.1 | 0.00 | 0.00 | 0.00 | 1001.8 | |
| 20260506122954 | -17 | 180 | 4.8 | 22.5 | 0.00 | 0.00 | 0.00 | 1001.9 | |
| 20260506121815 | -17 | 180 | 11.3 | 25.7 | 0.00 | 0.00 | 0.00 | 1001.8 | |
| 20260506120637 | -17 | 180 | 9.7 | 17.7 | 0.00 | 0.00 | 0.00 | 1001.8 | |
| 20260506115458 | -17 | 225 | 8.0 | 22.5 | 0.00 | 0.00 | 0.00 | 1001.8 | |
| 20260506114329 | -17 | 315 | 3.2 | 12.9 | 0.00 | 0.00 | 0.00 | 1001.9 | |
| 20260506113142 | -17 | 225 | 8.0 | 17.7 | 0.00 | 0.00 | 0.00 | 1002.0 | |
| 20260506112004 | -17 | 225 | 12.9 | 20.9 | 0.00 | 0.00 | 0.00 | 1002.1 | |
| 20260506110826 | -17 | 180 | 17.7 | 22.5 | 0.00 | 0.00 | 0.00 | 1002.4 | |
| 20260506105646 | -17 | 338 | 4.8 | 19.3 | 0.00 | 0.00 | 0.00 | 1002.4 | |
| 20260506104508 | -17 | 338 | 11.3 | 25.7 | 0.00 | 0.00 | 0.00 | 1002.3 | |
| 20260506103330 | -17 | 225 | 14.5 | 20.9 | 0.00 | 0.00 | 0.00 | 1002.7 | |
| 20260506102152 | -17 | 338 | 9.7 | 19.3 | 0.00 | 0.00 | 0.00 | 1002.7 | |
| 20260506101014 | -17 | 338 | 8.0 | 24.1 | 0.00 | 0.00 | 0.00 | 1002.8 | |
| 20260506095830 | -17 | 225 | 8.0 | 19.3 | 0.00 | 0.00 | 0.00 | 1002.9 | |
| 20260506094651 | -17 | 180 | 6.4 | 17.7 | 0.00 | 0.00 | 0.00 | 1003.0 | |
| 20260506093513 | -17 | 180 | 12.9 | 22.5 | 0.00 | 0.00 | 0.00 | 1002.7 | |
| 20260506092332 | -17 | 248 | 12.9 | 17.7 | 0.00 | 0.00 | 0.00 | 1002.7 | |
| 20260506091153 | -17 | 225 | 8.0 | 17.7 | 0.00 | 0.00 | 0.00 | 1002.9 | |
| 20260506090015 | -17 | 225 | 12.9 | 12.9 | 0.00 | 0.00 | 0.00 | 1003.1 | |
| 20260506084837 | -17 | 225 | 8.0 | 19.3 | 0.00 | 0.00 | 0.00 | 1003.1 | |
| 20260506083659 | -17 | 315 | 6.4 | 16.1 | 0.00 | 0.00 | 0.00 | 1003.5 | |
| 20260506082519 | -17 | 338 | 4.8 | 16.1 | 0.00 | 0.00 | 0.00 | 1003.6 | |
| 20260506081341 | -17 | 225 | 4.8 | 11.3 | 0.00 | 0.00 | 0.00 | 1003.6 | |
| 20260506080201 | -17 | 338 | 8.0 | 16.1 | 0.00 | 0.00 | 0.00 | 1003.6 | |
| 20260506072706 | -17 | 293 | 11.3 | 14.5 | 0.00 | 0.00 | 0.00 | 1004.1 | |
| 20260506071527 | -17 | 338 | 11.3 | 17.7 | 0.00 | 0.00 | 0.00 | 1004.0 | |
| 20260506070347 | -17 | 315 | 4.8 | 16.1 | 0.00 | 0.00 | 0.00 | 1004.3 | |
| 20260506061655 | -17 | 293 | 11.3 | 17.7 | 0.00 | 0.00 | 0.00 | 1004.2 | |
| 20260506060514 | -17 | 270 | 6.4 | 14.5 | 0.00 | 0.00 | 0.00 | 1004.4 | |
| 20260506050639 | -17 | 225 | 1.6 | 9.7 | 0.00 | 0.00 | 0.00 | 1004.4 | |
| 20260506044315 | -17 | 315 | 1.6 | 3.2 | 0.00 | 0.00 | 0.00 | 1004.4 | |
| 20260506043133 | -17 | 248 | 1.6 | 3.2 | 0.00 | 0.00 | 0.00 | 1004.4 | |
| 20260506041950 | -17 | 293 | 0.0 | 1.6 | 0.00 | 0.00 | 0.00 | 1004.3 | |
| 20260506040808 | -17 | 270 | 0.0 | 3.2 | 0.00 | 0.00 | 0.00 | 1004.3 | |
| 20260506035626 | -17 | 270 | 3.2 | 3.2 | 0.00 | 0.00 | 0.00 | 1004.0 |